Погода в Джалинде

Погода в Джалинде : погода сейчас, прогноз погоды и архив. Всё, что Вы хотите узнать о погоде в Джалинде!

Поиск расширенной информации на нашем сайте:

Другие новости

Новости СМИ2

Главная страница сайта

Новости сайта

02.10.2013

Напоминаем, что на нашем новом сайте вы можете получить высокодетализированные прогнозы погоды по пунктам России, СНГ и мира (включающие важные для авиации метеовеличины, такие как направление и скорость ветра, видимость, явления погоды, количество и форма облачности, нижняя и верхняя граница облачности), а также ознакомиться с разнообразными материалами по авиационной метеорологии и подборкой полезных ссылок на эту тему.

Сайт Метеоцентр.Азия посвящён разработке технологий оптимизации авиаметеорологического обслуживания, включая проектирование и перспективное создание нескольких автоматизированных авиаметеорологических систем:
- система выпуска высокодетальных прогностических карт явлений погоды для нижнего воздушного пространства по России и ближнему зарубежью;
- система верификации прогнозов TAF (выпускаемых синоптиками официальных АМСГ РФ и ближнего зарубежья) и AUTOTAF (выпускаемых сайтом Метеоцентр.Азия) - выявление ошибок, онлайн-сопоставление с фактической погодой METAR, автоматическое внесение коррективов в прогнозы при резком отклонении фактической погоды от прогноза, подсчёт оправдываемости прогнозов по элементам и в целом;
- система обработки, анализа и отображения авиаметеорологической информации для применения провайдерами метеорологической информации.

Рекомендуем: Эротическое белье для пышек

Погода в Джалинде - сегодня

Время (UTC), дата Ветер
(°,м/с) 
Видим.   Явления Облачность Т
(°С)
Тd
(°С)
f(%) Тe
(°С)
Pmin
(гПа)
dP
(гПа)
Po
(мм)
O2
(г/м3)
Тmin Tmax R s Состояние
почвы
03 27.04.17 330 (СЗ) 7-11{12}  20000 м    9/8 600 м кучево-дожд., верхняя 
[Cb cap|Ci]
+12.5 -6.9 25 +11  1006.3  -2  731  282           
06 27.04.17 310 (СЗ) 5{12}  20000 м    10/8 600 м кучево-дожд., верхняя 
[Cb cap|Ci]
+12.2 -6.8 26 +11  1003.3  -2.9  729  282           
09 27.04.17 320 (СЗ) 7-12{13}  20000 м    10/6 600 м кучево-дожд., средняя, верхняя 
[Cb cap|Ac trans|Ci]
+12.9 -7.9 23 +12  1001.5  -1.7  728  281           
12 27.04.17 360 (С) 1{12}  20000 м    10/3 600 м кучево-дожд., верхняя 
[Cb cap|Ci]
+6.2 -6.1 41 +7  1002.1  -0.1  728  287    +14.5       
15 27.04.17 010 (С) 20000 м    10/0 средняя, верхняя 
[Ac trans|Ci]
+2 -4.3 63 +3  1001.8  -0.7  727  291           
18 27.04.17 тихо ()   20000 м    9/0 средняя 
[Ac trans]
+0.8 -3.8 71 +1  1001.1  -0.9  726  292           
21 27.04.17 340 (С) 20000 м  в посл. час ливневой дождь  9/3 600 м кучево-дожд., средняя, верхняя 
[Cb cap|Ac lent|Ci]
+3.9 -0.9 71 +2  1000.4  -0.3  726  289           
00 28.04.17 350 (С) 5-10{14}  20000 м  {ливн. осадки}  4/4 600 м 
[Cu med, cong]
+8.7 -1.3 49 +7  1001.1  1.2  727  284  -1.2    0.5    мокрая 
03 28.04.17 340 (С) 6-10{12}  20000 м    8/8 600 м кучево-дожд. 
[Cb cap]
+11.9 -5.7 29 +11  1000.5  -0.3  727  281           
06 28.04.17 310 (СЗ) 5{11}  20000 м    9/9 600 м кучево-дожд. 
[Cb cap]
+11.9 -6 28 +11  998.8  -1.7  726  281           
09 28.04.17 310 (СЗ) 2{10}  20000 м    10/0 верхняя 
[Cs]
+11.9 -6.2 28 +12  995.6  -3  723  280           
12 28.04.17 100 (В) 20000 м    10/8 600 м кучево-дожд., верхняя 
[Cb cap|Cs]
+9.6 -4.4 37 +11  993.2  -2.6  722  281    +13.1       
15 28.04.17 140 (ЮВ) 2{10}  20000 м  в посл. час ливневой дождь  10/10 600 м кучево-дожд. 
[Cb cap]
+5 +3.4 89 +5  990.8  -2.7  719  284           
18 28.04.17 120 (ЮВ) 20000 м  {ливн. осадки}  10/10 600 м кучево-дожд. 
[Cb cap]
+4.3 +2.7 89 +3  987.8  -3  717  284           
21 28.04.17 320 (СЗ) 10 км  слаб. ливневой дождь  10/10 600 м кучево-дожд. 
[Cb cap]
+3.9 +3 94 +2  988.5  0.7  718  285           
00 29.04.17 340 (С) 7-12{12}  20000 м  в посл. час ливневой дождь  9/9 600 м кучево-дожд. 
[Cb cap]
+4.4 +1.6 82 +1  990.5  719  285  +2.9      мокрая 
03 29.04.17 360 (С) 4{12}  10 км  слаб. ливневой дождь  10/10 600 м кучево-дожд. 
[Cb cap]
+5.4 +2 79 +4  995.5  4.9  723  285           
06 29.04.17 050 (СВ) 10 км  {ливн. осадки}  10/8 600 м кучево-дожд., средняя 
[Cb cap|As op]
+6.8 +2.8 76 +7  998.4  2.9  725  285           
09 29.04.17 010 (С) 10 км  ливневой дождь  10/10 600 м кучево-дожд. 
[Cb cap]
+5.8 +3.2 83 +5  1002.2  3.5  728  287           
12 29.04.17 320 (СЗ) 20000 м  {ливн. осадки}  ясно 600 м кучево-дожд., верхняя 
[Cb cap|Ci]
+4.9 +0.5 73 +4  1005.1  2.7  732  290    +8.7     
15 29.04.17 320 (СЗ) 20000 м    5/0 верхняя 
[Ci]
+3.5 -2.1 67 +2  1007.2  1.8  731  291           
18 29.04.17 320 (СЗ) 20000 м    3/0 верхняя 
[Ci]
+3.6 -3 62 +1  1007.7  0.5  731  291           
21 29.04.17 //0 (С) //  20000 м    ясно 
+2.3 -4.4 61 +2  1010.7  2.8  734  294           
00 30.04.17 320 (СЗ) 20000 м    5/0 верхняя 
[Ci]
+7 -3.3 48 +6  1010.8  0.7  734  289  +1.5        мокрая 
03 30.04.17 300 (СЗ) 20000 м    3/1 600 м верхняя 
[Cu hum|Ci]
+11.8 -3.2 35 +11  1010  -0.4  734  284           
Время (UTC), дата Ветер
(°,м/с) 
Видим.   Явления Облачность Т
(°С)
Тd
(°С)
f(%) Тe
(°С)
Pmin
(гПа)
dP
(гПа)
Po
(мм)
O2
(г/м3)
Тmin Tmax R s Состояние
почвы

Для получения пояснительной информации подведите курсор к названию столбца.

ПОГОДА в Джалинде - архив

Всё, что Вы хотите узнать о погоде в Джалинде - удобно и подробно!

Выберите нужную дату (начиная с 1 января 2015* года) и нажмите кнопку "Найти".
Будут отображены архивные сводки погоды по пункту Джалинда, начиная с указанной даты.


Отображать данные в формате CSV (для использования в таблицах Excel)


Внимание! Наш архив погоды предназначен исключительно для личного некоммерческого использования в познавательных целях. Если Вам необходимы официальные справки о состоянии погоды (для производственных, юридических, коммерческих и т.п. целей), обращайтесь в органы Росгидромета.

*Примечание: данная дата относится к архиву по метеостанциям СССР (Россия, СНГ, Балтия).
Архив по метеостанциям Зарубежной Европы и Азии (кроме Китая) хранится 10 дней, по другим регионам земного шара (Китай, Африка, Америка, Австралия, Океания) - 1 день.

Джалинда - район местоположения метеостанции


Название, широта, долгота, высота метеостанции:
Джалинда 53.5°ш. 123.9°д. 266 м над ур. моря [Российская Федерация]

Дополнительная информация

В oтличие oт бoльшинства пoгoдных сайтoв мы публикуем пoдрoбную метеoинфoрмацию в детальнoм прoфессиoнальнoм фoрмате.

Характеристики температуры и влажнoсти вoздуха измеряются на высoте 2 м в тени вдали oт зданий и деревьев.
Скoрoсть ветра измеряется на высoте 10 м (на урoвне рoста челoвека скoрoсть ветра ниже в 1.5-2 раза). Если метеoстанция нахoдится в гoрoде или в лесу, тo скoрoсть ветра занижена на 2-4 м/с пo сравнению с oткрытым местoм. Скoрoсть ветра над акватoриями крупных рек и oзёр, а также на вершинах хoлмoв на 2-5 м/с выше, чем в oбычных услoвиях.
Атмoсфернoе давление в разных тoчках местнoсти мoжет значительнo oтличаться oт давления на метеoстанции, в зависимoсти oт услoвий рельефа (при пoдъёме на 10 м давление пoнижается примернo на 1 мм рт.ст.).